Location: ????????
(55.7667°N, 37.4833°E)
Time: 06:56:23
(UTC+00:00)

Cosmos 2369 - Pass Details

Date: 19 May 2025
Orbit: 840 x 852 km, 71.0° (Epoch: 23 June)

Event Time Altitude Azimuth Distance (km) Brightness Sun altitude
Rises 19:47:22 0° 324° (NW) 3,418 8.7 -11.4°
Reaches altitude 10° 19:49:52 10° 321° (NW) 2,477 7.5 -11.5°
Maximum altitude 19:55:26 59° 244° (WSW) 970 4.0 -11.8°
Enters shadow 19:59:51 16° 168° (SSE) 2,055 5.1 -12.1°
